Location: Newark
(23.3970°S, 47.6010°W)
Time: 14:11:59
(UTC+00:00)

deb Explorer IX - Pass Details

Date: 22 February 2020
Orbit: 547 x 1100 km, 38.8° (Epoch: 04 April)

Event Time Altitude Azimuth Distance (km) Brightness Sun altitude
Rises 23:09:30 0° 316° (NW) 3,347 ? -19.4°
Reaches altitude 10° 23:11:53 10° 319° (NW) 2,500 ? -19.9°
Maximum altitude 23:17:51 61° 38° (NE) 1,086 ? -21.2°
Enters shadow 23:20:53 33° 104° (ESE) 1,627 ? -21.8°
Drops below altitude 10° 23:24:42 10° 116° (ESE) 2,864 - -22.6°
Sets 23:27:36 0° 119° (ESE) 3,869 - -23.2°
